CZ-6A DEB

Satellite information

Favourite Embed

Satellite Type and Status

DEBRISIN ORBIT

Key statistics

Satellite CZ-6A DEB at a glance.

Uptime

969

Days in orbit

Revolutions

≈ 14.6

Per day

Orbit

SSO

Sun Synchronous Orbit

Inclination

98.6

Latest

Satellite identification and parameters

Extended collection of information and parameters for CZ-6A DEB.

Object identification

Identified? True

Debris? True

Object name: CZ-6A DEB

International designator: 2022-151GX

Object number (NORAD): 54471

Object ID (CCSDS): 54471

Country: PEOPLES REPUBLIC OF CHINA (PRC)

Current information (Y/N): Y

RCS size: SMALL

Orbital parameters

Period: 98.534 minutes

Inclination: 98.639 deg

SMA: 7066.724 km

Apoapsis: 748.426 km

Periapsis: 628.751 km

RAAN: 229.9332 deg

Eccentricy: 0.0084675

Argument of periapsis: 279.2823 deg

Mean anomaly: 79.8808 deg

Mean motion: 14.61421852 rev/day

Mean motion (dot): 0.0000616 rev/day2

B* drag term: 0.0011927 1/REarth

Two-line elements (TLE)

Creation date: July 6, 2025, 6:05 p.m.

Reference frame: TEME

Reference center: EARTH

Epoch: July 6, 2025, 1:33 p.m. UTC

TLE line 0: 0 CZ-6A DEB

TLE line 1: 1 54471U 22151GX 25187.56497354 .00006160 00000-0 11927-2 0 9993

TLE line 2: 2 54471 98.6390 229.9332 0084675 279.2823 79.8808 14.61421852139558

Live tracking on map

Real-time ground track for satellite CZ-6A DEB.

In-orbit conjunctions

A list of the most updated potential collisions computed for object CZ-6A DEB.

Target Orbit TCA Probability of collision Miss distance Type
COSMOS 2251 DEB LEO 2025-03-02 20:45:13 0.0006177709 52.0 (m) DEBRIS
TIROS 8 LEO 2024-11-11 11:17:30 0.0002801466 162.0 (m) PAYLOAD

Associated space launch

Chinese satellite reported for atmospheric/ocean/environmental/spatial parameter research purposes, details TBD.

CZ-6A DEB was lifted into orbit during the mission ‘Long March 6A | Yunhai 3’, on board a Long March 6A space rocket.

The launch took place on Nov. 11, 2022, 10:52 p.m. from Launch Complex 9A.

For more information about the launch, click the button.

Launch to space Long March 6A | Yunhai 3
Long March 6A | Yunhai 3

Agency: N/A

Status: Launch Successful

Launch date: Nov. 11, 2022, 10:52 p.m. UTC

Rocket: Long March 6A

Launch pad: Launch Complex 9A

Location: Taiyuan Satellite Launch Center, People's Republic of China

...

Latest news about this satellite

There are no fresh news available about this satellite. Check back as we update our databases every day.


Newsletter sign-up

Weekly statistics, charts and insights to help you stay on top of the space industry.